QPF
0.02 0.05 0.11 0.22 0.27 0.27 0.23 0.20 0.21 0.26 0.30 0.30 0.31 0.32 0.34 0.38 0.41 0.38 0.33 0.29 0.23 0.16 0.11 0.10 0.09 0.07 0.05 0.02 0.02 0.02 0.03 0.02 0.03 0.03 0.03 0.04 0.04 0.05 0.06 0.07 0.07 0.07 0.07 0.06 0.06 0.06 0.05 0.04 0.03 0.02 0.02 0.01 0.00 0.00 0.00 0.00 0.00 0.00 0.00 0.00 0.00 0.00 0.00 0.00 0.00 0.00 0.00 0.00 0.00
0.04 0.13 0.27 0.46 0.39 0.33 0.29 0.29 0.30 0.34 0.37 0.35 0.32 0.27 0.21 0.16 0.19 0.23 0.27 0.33 0.31 0.27 0.20 0.11 0.08 0.07 0.06 0.05 0.04 0.04 0.04 0.03 0.04 0.04 0.05 0.06 0.06 0.06 0.07 0.10 0.12 0.13 0.13 0.15 0.13 0.10 0.06 0.03 0.03 0.02 0.02 0.01 0.01 0.01 0.01 0.00 0.00 0.00 0.00 0.00 0.00 0.00 0.00 0.00 0.00 0.00 0.00 0.00 0.00
0.12 0.22 0.32 0.41 0.32 0.29 0.28 0.28 0.28 0.41 0.55 0.57 0.41 0.26 0.15 0.09 0.08 0.09 0.10 0.10 0.12 0.13 0.12 0.10 0.07 0.05 0.04 0.04 0.04 0.04 0.04 0.04 0.03 0.02 0.02 0.01 0.02 0.03 0.05 0.08 0.12 0.20 0.25 0.22 0.12 0.06 0.03 0.03 0.02 0.02 0.01 0.01 0.01 0.00 0.00 0.00 0.00 0.00 0.00 0.00 0.00 0.00 0.00 0.00 0.00 0.00 0.00 0.00 0.00
0.11 0.25 0.35 0.33 0.29 0.24 0.20 0.20 0.18 0.24 0.32 0.32 0.27 0.23 0.17 0.09 0.06 0.06 0.06 0.06 0.06 0.05 0.04 0.02 0.03 0.03 0.04 0.05 0.04 0.05 0.06 0.05 0.04 0.03 0.03 0.02 0.02 0.03 0.04 0.05 0.06 0.08 0.09 0.10 0.05 0.03 0.03 0.04 0.04 0.03 0.02 0.01 0.00 0.00 0.00 0.00 0.00 0.00 0.00 0.00 0.00 0.00 0.00 0.00 0.00 0.00 0.00 0.00 0.00
0.09 0.16 0.26 0.40 0.37 0.36 0.31 0.19 0.14 0.12 0.14 0.16 0.19 0.23 0.23 0.16 0.06 0.02 0.03 0.03 0.04 0.05 0.04 0.01 0.02 0.03 0.03 0.02 0.03 0.04 0.06 0.07 0.07 0.06 0.05 0.04 0.05 0.06 0.08 0.08 0.08 0.06 0.05 0.05 0.05 0.05 0.05 0.07 0.06 0.03 0.02 0.02 0.01 0.00 0.00 0.00 0.00 0.00 0.00 0.00 0.00 0.00 0.00 0.00 0.00 0.01 0.01 0.00 0.01
0.07 0.10 0.19 0.39 0.43 0.44 0.43 0.39 0.29 0.14 0.04 0.05 0.09 0.14 0.18 0.21 0.09 0.04 0.04 0.03 0.01 0.01 0.01 0.01 0.02 0.02 0.02 0.02 0.02 0.03 0.05 0.06 0.04 0.03 0.02 0.02 0.03 0.04 0.04 0.05 0.04 0.04 0.05 0.05 0.07 0.08 0.08 0.07 0.05 0.02 0.01 0.00 0.00 0.00 0.00 0.00 0.00 0.00 0.00 0.00 0.00 0.00 0.00 0.00 0.01 0.01 0.01 0.01 0.01
0.07 0.11 0.17 0.22 0.22 0.24 0.27 0.30 0.29 0.19 0.08 0.05 0.06 0.07 0.10 0.14 0.11 0.09 0.07 0.05 0.04 0.03 0.02 0.02 0.04 0.05 0.06 0.06 0.05 0.04 0.04 0.06 0.05 0.03 0.03 0.03 0.03 0.04 0.05 0.06 0.06 0.06 0.06 0.06 0.07 0.05 0.03 0.03 0.02 0.01 0.00 0.00 0.00 0.00 0.00 0.00 0.00 0.00 0.00 0.00 0.00 0.00 0.00 0.00 0.00 0.01 0.01 0.01 0.01
0.09 0.14 0.17 0.17 0.13 0.13 0.15 0.17 0.16 0.12 0.07 0.04 0.05 0.06 0.07 0.06 0.10 0.09 0.06 0.05 0.05 0.04 0.04 0.04 0.07 0.09 0.09 0.09 0.07 0.06 0.06 0.07 0.06 0.05 0.05 0.05 0.06 0.05 0.05 0.04 0.04 0.03 0.03 0.04 0.04 0.03 0.01 0.01 0.00 0.00 0.00 0.00 0.00 0.00 0.00 0.00 0.00 0.00 0.00 0.00 0.00 0.00 0.00 0.00 0.00 0.00 0.01 0.01 0.01
0.01 0.01 0.06 0.19 0.16 0.15 0.16 0.19 0.17 0.12 0.07 0.03 0.05 0.07 0.09 0.11 0.11 0.10 0.09 0.07 0.07 0.06 0.05 0.05 0.11 0.14 0.13 0.11 0.07 0.05 0.05 0.07 0.08 0.09 0.09 0.10 0.08 0.07 0.06 0.04 0.03 0.02 0.02 0.02 0.03 0.02 0.02 0.01 0.01 0.00 0.00 0.00 0.00 0.00 0.00 0.00 0.00 0.00 0.00 0.00 0.00 0.00 0.00 0.00 0.00 0.00 0.01 0.01 0.01
0.00 0.02 0.07 0.17 0.13 0.10 0.09 0.12 0.12 0.08 0.03 0.02 0.03 0.05 0.08 0.12 0.12 0.12 0.11 0.10 0.10 0.08 0.06 0.05 0.07 0.08 0.08 0.08 0.10 0.11 0.11 0.11 0.11 0.11 0.11 0.11 0.09 0.07 0.05 0.03 0.03 0.03 0.03 0.03 0.03 0.03 0.02 0.01 0.00 0.00 0.00 0.00 0.00 0.00 0.00 0.00 0.00 0.00 0.00 0.00 0.00 0.00 0.00 0.00 0.00 0.01 0.01 0.01 0.01
0.00 0.05 0.11 0.14 0.13 0.11 0.09 0.09 0.08 0.05 0.03 0.02 0.02 0.04 0.05 0.07 0.08 0.09 0.11 0.12 0.11 0.10 0.08 0.07 0.09 0.08 0.08 0.09 0.13 0.17 0.20 0.20 0.13 0.09 0.07 0.06 0.06 0.05 0.05 0.04 0.04 0.04 0.04 0.05 0.05 0.04 0.03 0.01 0.00 0.00 0.00 0.00 0.00 0.00 0.00 0.00 0.00 0.00 0.00 0.00 0.00 0.00 0.00 0.00 0.00 0.01 0.01 0.01 0.01
0.00 0.01 0.03 0.05 0.07 0.08 0.10 0.11 0.11 0.11 0.10 0.09 0.08 0.08 0.10 0.11 0.13 0.14 0.15 0.14 0.11 0.10 0.10 0.11 0.13 0.11 0.08 0.05 0.05 0.07 0.09 0.12 0.08 0.06 0.05 0.04 0.05 0.04 0.04 0.04 0.04 0.04 0.03 0.03 0.03 0.02 0.01 0.00 0.00 0.00 0.00 0.00 0.00 0.00 0.00 0.00 0.00 0.00 0.00 0.00 0.00 0.00 0.00 0.00 0.00 0.00 0.00 0.00 0.00
0.00 0.00 0.01 0.01 0.02 0.03 0.05 0.09 0.12 0.18 0.23 0.22 0.18 0.14 0.12 0.13 0.14 0.15 0.14 0.12 0.11 0.11 0.10 0.11 0.13 0.11 0.07 0.04 0.05 0.06 0.08 0.10 0.08 0.07 0.06 0.06 0.05 0.04 0.03 0.02 0.02 0.01 0.00 0.00 0.00 0.00 0.00 0.00 0.00 0.00 0.00 0.00 0.00 0.00 0.00 0.00 0.00 0.00 0.00 0.00 0.00 0.00 0.00 0.00 0.00 0.00 0.00 0.00 0.00
0.00 0.00 0.00 0.00 0.00 0.01 0.01 0.01 0.03 0.10 0.16 0.17 0.12 0.08 0.05 0.04 0.06 0.08 0.09 0.07 0.07 0.07 0.07 0.07 0.09 0.08 0.06 0.04 0.05 0.06 0.07 0.08 0.08 0.06 0.04 0.04 0.04 0.04 0.03 0.02 0.01 0.00 0.00 0.00 0.00 0.00 0.00 0.00 0.00 0.00 0.00 0.00 0.00 0.00 0.00 0.00 0.00 0.00 0.00 0.00 0.00 0.00 0.00 0.00 0.00 0.00 0.00 0.00 0.00
0.00 0.00 0.00 0.00 0.00 0.00 0.00 0.00 0.00 0.00 0.00 0.00 0.00 0.00 0.00 0.00 0.00 0.02 0.04 0.03 0.03 0.03 0.04 0.04 0.04 0.04 0.03 0.03 0.03 0.05 0.06 0.06 0.05 0.03 0.01 0.02 0.02 0.01 0.01 0.01 0.00 0.00 0.00 0.00 0.00 0.00 0.00 0.00 0.00 0.00 0.00 0.00 0.00 0.00 0.00 0.00 0.00 0.00 0.00 0.00 0.00 0.00 0.00 0.00 0.00 0.00 0.00 0.00 0.00
0.00 0.00 0.00 0.00 0.00 0.00 0.00 0.00 0.00 0.00 0.00 0.00 0.00 0.00 0.00 0.00 0.00 0.00 0.01 0.01 0.01 0.01 0.02 0.02 0.02 0.02 0.01 0.01 0.01 0.02 0.03 0.04 0.03 0.02 0.00 0.00 0.00 0.00 0.00 0.00 0.00 0.00 0.00 0.00 0.00 0.00 0.00 0.00 0.00 0.00 0.00 0.00 0.00 0.00 0.00 0.00 0.00 0.01 0.01 0.01 0.00 0.00 0.00 0.00 0.00 0.01 0.01 0.00 0.00
0.00 0.00 0.00 0.00 0.00 0.00 0.00 0.00 0.00 0.00 0.00 0.00 0.00 0.00 0.00 0.00 0.00 0.00 0.00 0.00 0.00 0.00 0.00 0.00 0.00 0.00 0.00 0.00 0.00 0.00 0.00 0.01 0.01 0.00 0.00 0.00 0.00 0.00 0.00 0.00 0.00 0.00 0.00 0.00 0.00 0.00 0.00 0.00 0.00 0.00 0.00 0.00 0.00 0.00 0.00 0.00 0.01 0.01 0.01 0.01 0.01 0.01 0.01 0.01 0.01 0.01 0.01 0.01 0.01
0.00 0.00 0.00 0.00 0.00 0.00 0.00 0.00 0.00 0.00 0.00 0.00 0.00 0.00 0.00 0.00 0.00 0.00 0.00 0.00 0.00 0.00 0.00 0.00 0.00 0.00 0.00 0.00 0.00 0.00 0.00 0.00 0.00 0.00 0.00 0.00 0.00 0.00 0.00 0.00 0.00 0.00 0.00 0.00 0.00 0.00 0.00 0.00 0.00 0.00 0.00 0.00 0.00 0.00 0.00 0.00 0.00 0.00 0.01 0.01 0.01 0.01 0.01 0.01 0.01 0.01 0.01 0.01 0.01
0.00 0.00 0.00 0.00 0.00 0.00 0.00 0.00 0.00 0.00 0.00 0.00 0.00 0.00 0.00 0.00 0.00 0.00 0.00 0.00 0.00 0.00 0.00 0.00 0.00 0.00 0.00 0.00 0.00 0.00 0.00 0.00 0.00 0.00 0.00 0.00 0.00 0.00 0.00 0.00 0.00 0.00 0.00 0.00 0.00 0.00 0.00 0.00 0.00 0.00 0.00 0.00 0.00 0.00 0.00 0.00 0.00 0.00 0.00 0.00 0.00 0.00 0.00 0.00 0.00 0.00 0.00 0.00 0.00
0.00 0.00 0.00 0.00 0.00 0.00 0.00 0.00 0.00 0.00 0.00 0.00 0.00 0.00 0.00 0.00 0.00 0.00 0.00 0.00 0.00 0.00 0.00 0.00 0.00 0.00 0.00 0.00 0.00 0.00 0.00 0.00 0.00 0.00 0.00 0.00 0.00 0.00 0.00 0.00 0.00 0.00 0.00 0.00 0.00 0.00 0.00 0.00 0.00 0.00 0.00 0.00 0.00 0.00 0.00 0.00 0.00 0.00 0.00 0.00 0.00 0.00 0.00 0.00 0.00 0.00 0.00 0.00 0.00
0.00 0.00 0.00 0.00 0.00 0.00 0.00 0.00 0.00 0.00 0.00 0.00 0.00 0.00 0.00 0.00 0.00 0.00 0.00 0.00 0.00 0.00 0.00 0.00 0.00 0.00 0.00 0.00 0.00 0.00 0.00 0.00 0.00 0.00 0.00 0.00 0.00 0.00 0.00 0.00 0.00 0.00 0.00 0.00 0.00 0.00 0.00 0.00 0.00 0.00 0.00 0.00 0.00 0.00 0.00 0.00 0.00 0.00 0.00 0.00 0.00 0.00 0.00 0.00 0.00 0.00 0.00 0.00 0.00
0.00 0.00 0.00 0.00 0.00 0.00 0.00 0.00 0.00 0.00 0.00 0.00 0.00 0.00 0.00 0.00 0.00 0.00 0.00 0.00 0.00 0.00 0.00 0.00 0.00 0.00 0.00 0.00 0.00 0.00 0.00 0.00 0.00 0.00 0.00 0.00 0.00 0.00 0.00 0.00 0.00 0.00 0.00 0.00 0.00 0.00 0.00 0.00 0.00 0.00 0.00 0.00 0.00 0.00 0.00 0.00 0.00 0.00 0.00 0.00 0.00 0.00 0.00 0.00 0.00 0.00 0.00 0.00 0.00
0.00 0.00 0.00 0.00 0.00 0.00 0.00 0.00 0.00 0.00 0.00 0.00 0.00 0.00 0.00 0.00 0.00 0.00 0.00 0.00 0.00 0.00 0.00 0.00 0.00 0.00 0.00 0.00 0.00 0.00 0.00 0.00 0.00 0.00 0.00 0.00 0.00 0.00 0.00 0.00 0.00 0.00 0.00 0.00 0.00 0.00 0.00 0.00 0.00 0.00 0.00 0.00 0.00 0.00 0.00 0.00 0.00 0.00 0.00 0.00 0.00 0.00 0.00 0.00 0.00 0.00 0.00 0.00 0.00
0.00 0.00 0.00 0.00 0.00 0.00 0.00 0.00 0.00 0.00 0.00 0.00 0.00 0.00 0.00 0.00 0.00 0.00 0.00 0.00 0.00 0.00 0.00 0.00 0.00 0.00 0.00 0.00 0.00 0.00 0.00 0.00 0.00 0.00 0.00 0.00 0.00 0.00 0.00 0.00 0.00 0.00 0.00 0.00 0.00 0.00 0.00 0.00 0.00 0.00 0.00 0.00 0.00 0.00 0.00 0.00 0.00 0.00 0.00 0.00 0.00 0.00 0.00 0.00 0.00 0.00 0.00 0.00 0.00
0.00 0.00 0.00 0.00 0.00 0.00 0.00 0.00 0.00 0.00 0.00 0.00 0.00 0.00 0.00 0.00 0.00 0.00 0.00 0.00 0.00 0.00 0.00 0.00 0.00 0.00 0.00 0.00 0.00 0.00 0.00 0.00 0.00 0.00 0.00 0.00 0.00 0.00 0.00 0.00 0.00 0.00 0.00 0.00 0.00 0.00 0.00 0.00 0.00 0.00 0.00 0.00 0.00 0.00 0.00 0.00 0.00 0.00 0.00 0.00 0.00 0.00 0.00 0.00 0.00 0.00 0.00 0.00 0.00
0.00 0.00 0.00 0.00 0.00 0.00 0.00 0.00 0.00 0.00 0.00 0.00 0.00 0.00 0.00 0.00 0.00 0.00 0.00 0.00 0.00 0.00 0.00 0.00 0.00 0.00 0.00 0.00 0.00 0.00 0.00 0.00 0.00 0.00 0.00 0.00 0.00 0.00 0.00 0.00 0.00 0.00 0.00 0.00 0.00 0.00 0.00 0.00 0.00 0.00 0.00 0.00 0.00 0.00 0.00 0.00 0.00 0.00 0.00 0.00 0.00 0.00 0.00 0.00 0.00 0.00 0.00 0.00 0.00
0.00 0.00 0.00 0.00 0.00 0.00 0.00 0.00 0.00 0.00 0.00 0.00 0.00 0.00 0.00 0.00 0.00 0.00 0.00 0.00 0.00 0.00 0.00 0.00 0.00 0.00 0.00 0.00 0.00 0.00 0.00 0.00 0.00 0.00 0.00 0.00 0.00 0.00 0.00 0.00 0.00 0.00 0.00 0.00 0.00 0.00 0.00 0.00 0.00 0.00 0.00 0.00 0.00 0.00 0.00 0.00 0.00 0.00 0.00 0.00 0.00 0.00 0.01 0.00 0.01 0.00 0.00 0.00 0.00
0.00 0.00 0.00 0.00 0.00 0.00 0.00 0.00 0.00 0.00 0.00 0.00 0.00 0.00 0.00 0.00 0.00 0.00 0.00 0.00 0.00 0.00 0.00 0.00 0.00 0.00 0.00 0.00 0.00 0.00 0.00 0.00 0.00 0.00 0.00 0.00 0.00 0.00 0.00 0.00 0.00 0.00 0.00 0.00 0.00 0.00 0.00 0.00 0.00 0.00 0.00 0.00 0.00 0.00 0.00 0.00 0.00 0.00 0.00 0.00 0.01 0.01 0.01 0.01 0.00 0.00 0.00 0.00 0.00
0.00 0.00 0.00 0.00 0.00 0.00 0.00 0.00 0.00 0.00 0.00 0.00 0.00 0.00 0.00 0.00 0.00 0.00 0.00 0.00 0.00 0.00 0.00 0.00 0.00 0.00 0.00 0.00 0.00 0.00 0.00 0.00 0.00 0.00 0.00 0.00 0.00 0.00 0.00 0.00 0.00 0.00 0.00 0.00 0.00 0.00 0.00 0.00 0.00 0.00 0.01 0.01 0.01 0.01 0.00 0.00 0.00 0.00 0.00 0.01 0.01 0.01 0.01 0.01 0.01 0.01 0.01 0.01 0.00
0.00 0.00 0.00 0.00 0.00 0.00 0.00 0.00 0.00 0.00 0.00 0.00 0.00 0.00 0.00 0.00 0.00 0.00 0.00 0.00 0.00 0.00 0.00 0.00 0.00 0.00 0.00 0.00 0.00 0.00 0.00 0.00 0.00 0.00 0.00 0.00 0.00 0.00 0.00 0.00 0.00 0.00 0.00 0.00 0.00 0.00 0.00 0.00 0.00 0.00 0.01 0.01 0.01 0.01 0.01 0.00 0.00 0.01 0.01 0.01 0.01 0.01 0.01 0.01 0.01 0.01 0.00 0.00 0.00
0.00 0.00 0.00 0.00 0.00 0.00 0.00 0.00 0.00 0.00 0.00 0.00 0.00 0.00 0.00 0.00 0.00 0.00 0.00 0.00 0.00 0.00 0.00 0.00 0.00 0.00 0.00 0.00 0.00 0.00 0.00 0.00 0.00 0.00 0.00 0.00 0.00 0.00 0.00 0.00 0.00 0.00 0.00 0.00 0.00 0.00 0.00 0.00 0.00 0.00 0.01 0.01 0.01 0.01 0.01 0.01 0.01 0.01 0.01 0.01 0.01 0.01 0.01 0.01 0.01 0.01 0.01 0.01 0.01
0.00 0.00 0.00 0.00 0.00 0.00 0.00 0.00 0.00 0.00 0.00 0.00 0.00 0.00 0.00 0.00 0.00 0.00 0.00 0.00 0.00 0.00 0.00 0.00 0.00 0.00 0.00 0.00 0.00 0.00 0.00 0.00 0.00 0.00 0.00 0.00 0.00 0.00 0.00 0.00 0.00 0.00 0.00 0.00 0.00 0.00 0.00 0.00 0.00 0.00 0.01 0.01 0.02 0.01 0.01 0.01 0.01 0.01 0.01 0.01 0.01 0.01 0.01 0.01 0.01 0.01 0.01 0.01 0.01
0.00 0.00 0.00 0.00 0.00 0.00 0.00 0.00 0.00 0.00 0.00 0.00 0.00 0.00 0.00 0.00 0.00 0.00 0.00 0.00 0.00 0.00 0.00 0.00 0.00 0.00 0.00 0.00 0.00 0.00 0.00 0.00 0.00 0.00 0.00 0.00 0.00 0.00 0.00 0.00 0.00 0.00 0.00 0.00 0.00 0.00 0.00 0.00 0.00 0.00 0.01 0.02 0.02 0.01 0.01 0.01 0.01 0.01 0.01 0.01 0.01 0.01 0.01 0.01 0.01 0.01 0.01 0.01 0.01
0.00 0.00 0.00 0.00 0.00 0.00 0.00 0.00 0.00 0.00 0.00 0.00 0.00 0.00 0.00 0.00 0.00 0.00 0.00 0.00 0.00 0.00 0.00 0.00 0.00 0.00 0.00 0.00 0.00 0.00 0.00 0.00 0.00 0.00 0.00 0.00 0.00 0.00 0.00 0.00 0.00 0.00 0.00 0.00 0.00 0.00 0.00 0.00 0.00 0.01 0.01 0.02 0.02 0.01 0.01 0.01 0.01 0.01 0.01 0.01 0.01 0.01 0.01 0.01 0.01 0.01 0.01 0.01 0.01
0.00 0.00 0.00 0.00 0.00 0.00 0.00 0.00 0.00 0.00 0.00 0.00 0.00 0.00 0.00 0.00 0.00 0.00 0.00 0.00 0.00 0.00 0.00 0.00 0.00 0.00 0.00 0.00 0.00 0.00 0.00 0.00 0.00 0.00 0.00 0.00 0.00 0.00 0.00 0.00 0.00 0.00 0.00 0.00 0.00 0.00 0.00 0.00 0.00 0.01 0.02 0.02 0.01 0.01 0.01 0.01 0.01 0.01 0.01 0.01 0.01 0.01 0.01 0.01 0.01 0.01 0.01 0.01 0.01
0.00 0.00 0.00 0.00 0.00 0.00 0.00 0.00 0.00 0.00 0.00 0.00 0.00 0.00 0.00 0.00 0.00 0.00 0.00 0.00 0.00 0.00 0.00 0.00 0.00 0.00 0.00 0.00 0.00 0.00 0.00 0.00 0.00 0.00 0.00 0.00 0.00 0.00 0.00 0.00 0.00 0.00 0.00 0.00 0.00 0.00 0.00 0.00 0.00 0.01 0.02 0.01 0.01 0.01 0.01 0.01 0.01 0.01 0.01 0.01 0.01 0.01 0.01 0.01 0.01 0.01 0.01 0.01 0.01
0.00 0.00 0.00 0.00 0.00 0.00 0.00 0.00 0.00 0.00 0.00 0.00 0.00 0.00 0.00 0.00 0.00 0.00 0.00 0.00 0.00 0.00 0.00 0.00 0.00 0.00 0.00 0.00 0.00 0.00 0.00 0.00 0.00 0.00 0.00 0.00 0.00 0.00 0.00 0.00 0.00 0.00 0.00 0.00 0.00 0.00 0.00 0.00 0.01 0.02 0.02 0.01 0.01 0.01 0.01 0.01 0.01 0.01 0.01 0.01 0.01 0.01 0.01 0.01 0.01 0.01 0.01 0.01 0.01
0.00 0.00 0.00 0.00 0.00 0.00 0.00 0.00 0.00 0.00 0.00 0.00 0.00 0.00 0.00 0.00 0.00 0.00 0.00 0.00 0.00 0.00 0.00 0.00 0.00 0.00 0.00 0.00 0.00 0.00 0.00 0.00 0.00 0.00 0.00 0.00 0.00 0.00 0.00 0.00 0.00 0.00 0.00 0.00 0.00 0.00 0.00 0.01 0.02 0.02 0.02 0.01 0.01 0.01 0.00 0.01 0.01 0.01 0.01 0.01 0.01 0.01 0.01 0.01 0.01 0.01 0.01 0.01 0.01
0.00 0.00 0.00 0.00 0.00 0.00 0.00 0.00 0.00 0.00 0.00 0.00 0.00 0.00 0.00 0.00 0.00 0.00 0.00 0.00 0.00 0.00 0.00 0.00 0.00 0.00 0.00 0.00 0.00 0.00 0.00 0.00 0.00 0.00 0.00 0.00 0.00 0.00 0.00 0.00 0.00 0.00 0.00 0.00 0.00 0.01 0.01 0.02 0.02 0.02 0.01 0.01 0.00 0.00 0.00 0.00 0.01 0.01 0.01 0.01 0.01 0.01 0.01 0.01 0.01 0.01 0.01 0.01 0.01
0.00 0.00 0.00 0.00 0.00 0.00 0.00 0.00 0.00 0.00 0.00 0.00 0.00 0.00 0.00 0.00 0.00 0.00 0.00 0.00 0.00 0.00 0.00 0.00 0.00 0.00 0.00 0.00 0.00 0.00 0.00 0.00 0.00 0.00 0.00 0.00 0.00 0.00 0.00 0.00 0.00 0.00 0.00 0.00 0.00 0.01 0.01 0.02 0.01 0.01 0.01 0.00 0.00 0.00 0.00 0.00 0.01 0.01 0.01 0.01 0.01 0.01 0.01 0.01 0.01 0.01 0.01 0.01 0.01
0.00 0.00 0.00 0.00 0.00 0.00 0.00 0.00 0.00 0.00 0.00 0.00 0.00 0.00 0.00 0.00 0.00 0.00 0.00 0.00 0.00 0.00 0.00 0.00 0.00 0.00 0.00 0.00 0.00 0.00 0.00 0.00 0.00 0.00 0.00 0.00 0.00 0.00 0.00 0.00 0.00 0.00 0.00 0.00 0.01 0.01 0.02 0.02 0.01 0.01 0.01 0.00 0.00 0.00 0.00 0.00 0.01 0.01 0.01 0.01 0.01 0.01 0.01 0.01 0.01 0.01 0.01 0.01 0.01
MSLP
1013.43 1013.59 1013.71 1013.91 1014.21 1014.57 1014.87 1015.13 1015.21 1015.25 1015.25 1015.31 1015.51 1015.65 1015.75 1015.71 1015.59 1015.43 1015.37 1015.43 1015.47 1015.59 1015.81 1016.03 1016.31 1016.57 1016.65 1016.53 1016.21 1015.93 1015.79 1015.79 1015.79 1015.85 1015.97 1016.19 1016.51 1016.85 1017.13 1017.21 1017.13 1017.03 1017.09 1017.25 1017.53 1017.91 1018.15 1018.15 1018.09 1018.07 1018.07 1018.07 1017.97 1017.85 1017.75 1017.69 1017.75 1017.85 1017.93 1017.99 1018.03 1018.07 1018.09 1018.15 1018.21 1018.25 1018.29 1018.35 1018.35
1013.13 1013.29 1013.57 1013.91 1014.25 1014.57 1014.87 1015.13 1015.21 1015.25 1015.29 1015.37 1015.57 1015.71 1015.75 1015.63 1015.57 1015.51 1015.47 1015.51 1015.53 1015.63 1015.79 1015.99 1016.37 1016.69 1016.79 1016.63 1016.31 1016.03 1015.87 1015.79 1015.75 1015.79 1015.91 1016.13 1016.43 1016.75 1016.97 1017.03 1016.97 1016.93 1017.07 1017.35 1017.75 1018.09 1018.21 1018.19 1018.25 1018.31 1018.37 1018.35 1018.21 1018.07 1017.93 1017.81 1017.75 1017.81 1017.91 1017.99 1018.03 1018.09 1018.13 1018.19 1018.21 1018.25 1018.29 1018.35 1018.35
1012.97 1013.15 1013.51 1013.93 1014.29 1014.57 1014.81 1015.09 1015.15 1015.09 1015.09 1015.29 1015.47 1015.57 1015.53 1015.41 1015.47 1015.53 1015.57 1015.57 1015.63 1015.75 1015.91 1016.13 1016.31 1016.51 1016.63 1016.59 1016.37 1016.15 1015.99 1015.91 1015.85 1015.91 1016.09 1016.29 1016.47 1016.63 1016.75 1016.87 1016.97 1017.09 1017.35 1017.75 1018.09 1018.19 1018.19 1018.25 1018.37 1018.51 1018.59 1018.59 1018.53 1018.37 1018.15 1017.97 1017.87 1017.87 1017.97 1017.99 1018.09 1018.13 1018.15 1018.19 1018.21 1018.21 1018.25 1018.29 1018.31
1012.93 1013.13 1013.43 1013.81 1014.15 1014.43 1014.71 1014.99 1015.03 1014.93 1014.97 1015.29 1015.51 1015.57 1015.47 1015.29 1015.19 1015.29 1015.43 1015.65 1015.87 1016.09 1016.21 1016.31 1016.41 1016.53 1016.63 1016.63 1016.53 1016.41 1016.31 1016.31 1016.29 1016.31 1016.37 1016.59 1016.75 1016.81 1016.87 1017.03 1017.19 1017.37 1017.65 1017.99 1018.13 1018.09 1018.07 1018.13 1018.31 1018.51 1018.65 1018.69 1018.65 1018.47 1018.25 1018.07 1017.99 1017.99 1018.03 1018.09 1018.09 1018.15 1018.21 1018.29 1018.29 1018.25 1018.29 1018.29 1018.25
1012.99 1013.09 1013.29 1013.63 1014.03 1014.35 1014.63 1014.85 1014.93 1014.85 1014.87 1015.21 1015.43 1015.51 1015.37 1015.19 1014.93 1014.97 1015.29 1015.71 1016.07 1016.29 1016.41 1016.51 1016.59 1016.71 1016.79 1016.79 1016.65 1016.57 1016.59 1016.71 1016.81 1016.85 1016.85 1016.91 1017.03 1017.07 1017.09 1017.15 1017.35 1017.57 1017.79 1017.91 1017.87 1017.87 1017.91 1018.03 1018.21 1018.43 1018.69 1018.91 1018.79 1018.51 1018.29 1018.21 1018.09 1018.03 1018.07 1018.13 1018.15 1018.21 1018.29 1018.37 1018.37 1018.35 1018.31 1018.31 1018.25
1012.93 1013.03 1013.19 1013.51 1013.87 1014.21 1014.51 1014.71 1014.85 1014.85 1014.81 1014.91 1015.03 1015.15 1015.29 1015.29 1014.97 1014.85 1015.03 1015.47 1015.87 1016.15 1016.37 1016.59 1016.71 1016.85 1016.87 1016.85 1016.75 1016.65 1016.71 1016.93 1017.15 1017.21 1017.15 1017.09 1017.15 1017.21 1017.25 1017.35 1017.43 1017.57 1017.69 1017.79 1017.79 1017.79 1017.87 1017.99 1018.15 1018.41 1018.69 1018.91 1018.79 1018.57 1018.37 1018.21 1018.09 1018.07 1018.09 1018.13 1018.19 1018.25 1018.29 1018.35 1018.37 1018.35 1018.35 1018.37 1018.37
1012.81 1012.93 1013.19 1013.57 1013.79 1013.97 1014.21 1014.57 1014.75 1014.75 1014.69 1014.69 1014.81 1014.99 1015.25 1015.47 1015.41 1015.29 1015.25 1015.37 1015.75 1016.09 1016.35 1016.57 1016.69 1016.79 1016.81 1016.81 1016.81 1016.79 1016.81 1016.97 1017.21 1017.37 1017.35 1017.25 1017.25 1017.25 1017.29 1017.35 1017.37 1017.51 1017.63 1017.75 1017.79 1017.81 1017.85 1017.97 1018.21 1018.53 1018.71 1018.81 1018.71 1018.53 1018.35 1018.25 1018.13 1018.07 1018.09 1018.15 1018.19 1018.21 1018.25 1018.31 1018.35 1018.37 1018.37 1018.41 1018.41
1012.63 1012.81 1013.09 1013.51 1013.79 1013.87 1014.07 1014.41 1014.65 1014.79 1014.81 1014.79 1014.87 1015.03 1015.25 1015.43 1015.53 1015.57 1015.59 1015.69 1015.91 1016.09 1016.31 1016.47 1016.59 1016.63 1016.63 1016.65 1016.75 1016.81 1016.85 1016.91 1017.09 1017.19 1017.25 1017.29 1017.35 1017.35 1017.31 1017.25 1017.37 1017.59 1017.81 1017.97 1017.97 1017.91 1017.91 1017.99 1018.31 1018.57 1018.75 1018.79 1018.71 1018.57 1018.37 1018.19 1018.07 1018.03 1018.07 1018.13 1018.19 1018.25 1018.29 1018.31 1018.35 1018.37 1018.41 1018.41 1018.41
1012.53 1012.69 1012.97 1013.37 1013.71 1013.93 1014.07 1014.29 1014.53 1014.81 1014.97 1014.91 1014.85 1014.93 1015.09 1015.29 1015.35 1015.41 1015.57 1015.79 1015.99 1016.15 1016.29 1016.43 1016.47 1016.47 1016.47 1016.47 1016.63 1016.79 1016.85 1016.87 1016.93 1016.99 1017.09 1017.19 1017.29 1017.35 1017.35 1017.31 1017.53 1017.85 1018.15 1018.29 1018.29 1018.19 1018.15 1018.25 1018.47 1018.63 1018.71 1018.71 1018.65 1018.51 1018.25 1018.07 1017.99 1017.99 1018.07 1018.15 1018.25 1018.31 1018.35 1018.37 1018.43 1018.43 1018.43 1018.41 1018.43
1012.43 1012.57 1012.81 1013.25 1013.63 1013.85 1013.99 1014.13 1014.31 1014.53 1014.65 1014.69 1014.69 1014.79 1014.91 1015.07 1015.09 1015.15 1015.35 1015.65 1015.93 1016.13 1016.25 1016.37 1016.43 1016.41 1016.37 1016.37 1016.47 1016.69 1016.87 1016.87 1016.85 1016.91 1017.13 1017.35 1017.41 1017.51 1017.57 1017.63 1017.91 1018.19 1018.41 1018.53 1018.57 1018.51 1018.47 1018.47 1018.59 1018.69 1018.71 1018.65 1018.51 1018.25 1018.07 1017.97 1017.97 1018.07 1018.15 1018.25 1018.31 1018.37 1018.41 1018.43 1018.51 1018.51 1018.51 1018.47 1018.47
1012.21 1012.41 1012.65 1013.03 1013.43 1013.71 1013.91 1014.09 1014.19 1014.31 1014.41 1014.47 1014.53 1014.65 1014.81 1014.97 1014.99 1015.03 1015.15 1015.37 1015.69 1015.91 1016.09 1016.29 1016.31 1016.35 1016.31 1016.35 1016.37 1016.63 1016.87 1016.93 1017.03 1017.21 1017.37 1017.51 1017.47 1017.53 1017.65 1017.81 1017.99 1018.19 1018.37 1018.57 1018.75 1018.87 1018.87 1018.79 1018.71 1018.69 1018.63 1018.51 1018.29 1018.09 1017.99 1017.99 1018.07 1018.15 1018.25 1018.35 1018.37 1018.41 1018.51 1018.53 1018.57 1018.57 1018.57 1018.53 1018.51
1012.07 1012.21 1012.41 1012.71 1013.09 1013.51 1013.81 1014.03 1014.21 1014.37 1014.53 1014.69 1014.79 1014.87 1014.93 1015.07 1015.13 1015.19 1015.25 1015.41 1015.75 1015.97 1016.15 1016.31 1016.37 1016.41 1016.47 1016.47 1016.41 1016.57 1016.81 1016.99 1017.19 1017.35 1017.41 1017.41 1017.47 1017.57 1017.69 1017.81 1017.91 1017.99 1018.15 1018.43 1018.75 1018.93 1018.97 1018.81 1018.59 1018.43 1018.37 1018.29 1018.19 1018.15 1018.15 1018.15 1018.19 1018.29 1018.35 1018.41 1018.43 1018.51 1018.57 1018.59 1018.63 1018.63 1018.63 1018.63 1018.63
1011.99 1012.19 1012.37 1012.57 1012.87 1013.21 1013.59 1013.85 1013.99 1014.29 1014.63 1014.97 1015.03 1015.07 1015.09 1015.19 1015.35 1015.51 1015.63 1015.75 1015.99 1016.15 1016.25 1016.35 1016.37 1016.41 1016.47 1016.47 1016.47 1016.59 1016.81 1016.97 1017.13 1017.25 1017.37 1017.43 1017.51 1017.57 1017.63 1017.65 1017.69 1017.81 1018.07 1018.35 1018.53 1018.63 1018.63 1018.51 1018.35 1018.29 1018.25 1018.25 1018.25 1018.29 1018.29 1018.31 1018.31 1018.37 1018.43 1018.47 1018.53 1018.59 1018.63 1018.65 1018.69 1018.71 1018.71 1018.69 1018.71
1012.15 1012.31 1012.51 1012.63 1012.85 1013.13 1013.37 1013.57 1013.63 1013.87 1014.31 1014.75 1014.91 1014.97 1015.03 1015.21 1015.37 1015.53 1015.65 1015.75 1015.97 1016.13 1016.21 1016.31 1016.29 1016.25 1016.29 1016.37 1016.51 1016.63 1016.75 1016.87 1016.99 1017.15 1017.35 1017.51 1017.51 1017.47 1017.47 1017.57 1017.65 1017.81 1018.07 1018.35 1018.43 1018.47 1018.43 1018.37 1018.25 1018.25 1018.29 1018.31 1018.37 1018.37 1018.37 1018.37 1018.41 1018.43 1018.51 1018.57 1018.63 1018.69 1018.71 1018.75 1018.75 1018.79 1018.79 1018.75 1018.79
1012.47 1012.57 1012.69 1012.81 1012.97 1013.15 1013.31 1013.43 1013.51 1013.65 1013.97 1014.31 1014.57 1014.71 1014.87 1015.09 1015.21 1015.31 1015.43 1015.59 1015.79 1015.93 1016.07 1016.15 1016.15 1016.15 1016.21 1016.35 1016.51 1016.63 1016.71 1016.75 1016.91 1017.13 1017.31 1017.43 1017.41 1017.43 1017.53 1017.69 1017.85 1017.99 1018.21 1018.43 1018.51 1018.47 1018.37 1018.35 1018.31 1018.31 1018.35 1018.37 1018.43 1018.47 1018.43 1018.47 1018.47 1018.53 1018.59 1018.65 1018.71 1018.75 1018.79 1018.85 1018.85 1018.81 1018.81 1018.81 1018.85
1012.69 1012.81 1012.93 1013.07 1013.15 1013.29 1013.41 1013.51 1013.65 1013.81 1014.03 1014.25 1014.47 1014.69 1014.93 1015.13 1015.29 1015.35 1015.41 1015.53 1015.75 1015.91 1015.99 1016.07 1016.13 1016.21 1016.35 1016.51 1016.59 1016.69 1016.75 1016.79 1016.93 1017.13 1017.29 1017.37 1017.43 1017.53 1017.69 1017.87 1018.07 1018.21 1018.37 1018.47 1018.47 1018.43 1018.41 1018.37 1018.37 1018.37 1018.41 1018.43 1018.51 1018.53 1018.57 1018.59 1018.59 1018.65 1018.71 1018.79 1018.81 1018.85 1018.87 1018.87 1018.87 1018.91 1018.91 1018.87 1018.87
1012.81 1012.93 1013.09 1013.21 1013.31 1013.43 1013.57 1013.69 1013.87 1014.07 1014.25 1014.43 1014.63 1014.81 1015.03 1015.25 1015.41 1015.51 1015.57 1015.69 1015.85 1016.03 1016.15 1016.19 1016.25 1016.35 1016.51 1016.65 1016.75 1016.81 1016.87 1016.97 1017.09 1017.21 1017.35 1017.47 1017.59 1017.75 1017.91 1018.07 1018.21 1018.31 1018.37 1018.43 1018.43 1018.43 1018.43 1018.41 1018.41 1018.47 1018.51 1018.53 1018.59 1018.63 1018.69 1018.71 1018.75 1018.75 1018.81 1018.85 1018.87 1018.91 1018.91 1018.93 1018.93 1018.97 1018.97 1018.97 1018.97
1012.93 1013.07 1013.19 1013.35 1013.47 1013.59 1013.75 1013.91 1014.09 1014.25 1014.41 1014.59 1014.75 1014.91 1015.09 1015.25 1015.41 1015.53 1015.65 1015.79 1015.93 1016.13 1016.29 1016.41 1016.43 1016.53 1016.63 1016.79 1016.91 1016.93 1016.97 1017.09 1017.21 1017.37 1017.51 1017.63 1017.75 1017.91 1018.07 1018.21 1018.31 1018.35 1018.37 1018.41 1018.41 1018.43 1018.47 1018.47 1018.51 1018.53 1018.59 1018.63 1018.65 1018.71 1018.75 1018.79 1018.85 1018.87 1018.87 1018.91 1018.93 1018.93 1018.93 1018.97 1018.99 1019.03 1019.03 1019.03 1018.99
1013.07 1013.21 1013.35 1013.47 1013.59 1013.75 1013.91 1014.07 1014.21 1014.41 1014.57 1014.71 1014.81 1014.97 1015.13 1015.25 1015.37 1015.53 1015.71 1015.85 1015.93 1016.07 1016.25 1016.47 1016.59 1016.65 1016.75 1016.85 1016.97 1017.03 1017.09 1017.19 1017.35 1017.51 1017.63 1017.75 1017.91 1018.03 1018.19 1018.31 1018.37 1018.43 1018.43 1018.41 1018.41 1018.47 1018.51 1018.53 1018.59 1018.63 1018.69 1018.71 1018.75 1018.79 1018.81 1018.85 1018.91 1018.93 1018.97 1018.97 1018.97 1018.97 1018.99 1019.03 1019.03 1019.07 1019.07 1019.07 1019.07
1013.25 1013.37 1013.51 1013.63 1013.75 1013.91 1014.07 1014.21 1014.35 1014.53 1014.69 1014.81 1014.93 1015.07 1015.19 1015.31 1015.37 1015.51 1015.69 1015.85 1015.97 1016.07 1016.19 1016.37 1016.59 1016.75 1016.87 1016.93 1017.03 1017.13 1017.25 1017.35 1017.47 1017.63 1017.79 1017.91 1018.03 1018.15 1018.25 1018.35 1018.43 1018.47 1018.47 1018.47 1018.51 1018.53 1018.59 1018.65 1018.69 1018.71 1018.71 1018.75 1018.79 1018.81 1018.85 1018.87 1018.91 1018.97 1018.99 1018.99 1018.99 1019.03 1019.07 1019.07 1019.07 1019.09 1019.09 1019.09 1019.09
1013.43 1013.57 1013.65 1013.85 1013.93 1014.07 1014.19 1014.35 1014.51 1014.65 1014.81 1014.93 1015.07 1015.15 1015.29 1015.37 1015.47 1015.57 1015.69 1015.87 1015.99 1016.13 1016.25 1016.41 1016.59 1016.75 1016.91 1016.97 1017.09 1017.25 1017.41 1017.51 1017.63 1017.75 1017.87 1017.99 1018.13 1018.21 1018.31 1018.35 1018.43 1018.47 1018.51 1018.57 1018.59 1018.65 1018.69 1018.71 1018.75 1018.75 1018.75 1018.79 1018.81 1018.85 1018.85 1018.87 1018.91 1018.97 1018.99 1019.03 1019.03 1019.07 1019.07 1019.09 1019.09 1019.13 1019.13 1019.13 1019.13
1013.63 1013.71 1013.85 1013.99 1014.13 1014.21 1014.35 1014.47 1014.63 1014.79 1014.93 1015.07 1015.19 1015.29 1015.41 1015.51 1015.63 1015.71 1015.85 1015.97 1016.09 1016.21 1016.37 1016.51 1016.63 1016.79 1016.91 1016.99 1017.13 1017.29 1017.47 1017.59 1017.75 1017.85 1017.93 1018.07 1018.15 1018.29 1018.31 1018.35 1018.41 1018.47 1018.53 1018.63 1018.69 1018.71 1018.79 1018.79 1018.81 1018.81 1018.81 1018.85 1018.85 1018.85 1018.85 1018.87 1018.91 1018.97 1018.99 1019.03 1019.07 1019.07 1019.09 1019.09 1019.13 1019.13 1019.13 1019.15 1019.15
1013.79 1013.91 1013.99 1014.13 1014.25 1014.37 1014.47 1014.59 1014.75 1014.91 1015.07 1015.21 1015.35 1015.47 1015.53 1015.65 1015.75 1015.87 1015.97 1016.09 1016.19 1016.35 1016.51 1016.65 1016.75 1016.87 1016.93 1016.99 1017.13 1017.29 1017.43 1017.59 1017.75 1017.85 1017.93 1017.99 1018.13 1018.21 1018.29 1018.31 1018.35 1018.43 1018.53 1018.59 1018.69 1018.71 1018.79 1018.79 1018.81 1018.81 1018.81 1018.85 1018.85 1018.81 1018.81 1018.85 1018.87 1018.93 1018.99 1019.07 1019.07 1019.09 1019.13 1019.13 1019.13 1019.15 1019.15 1019.15 1019.19
1013.93 1014.03 1014.13 1014.25 1014.37 1014.47 1014.57 1014.69 1014.85 1014.99 1015.15 1015.31 1015.43 1015.57 1015.65 1015.75 1015.85 1015.97 1016.07 1016.19 1016.31 1016.47 1016.63 1016.75 1016.87 1016.97 1017.03 1017.07 1017.15 1017.25 1017.37 1017.57 1017.75 1017.85 1017.91 1017.97 1018.03 1018.13 1018.21 1018.25 1018.31 1018.37 1018.43 1018.51 1018.53 1018.59 1018.65 1018.71 1018.71 1018.75 1018.75 1018.75 1018.81 1018.81 1018.85 1018.85 1018.87 1018.93 1018.99 1019.07 1019.07 1019.13 1019.15 1019.15 1019.15 1019.19 1019.21 1019.19 1019.21
1014.07 1014.15 1014.21 1014.37 1014.47 1014.57 1014.65 1014.75 1014.91 1015.07 1015.25 1015.37 1015.51 1015.59 1015.71 1015.81 1015.91 1016.03 1016.15 1016.29 1016.41 1016.53 1016.65 1016.81 1016.87 1016.93 1016.99 1017.13 1017.19 1017.29 1017.41 1017.57 1017.71 1017.85 1017.93 1017.99 1017.99 1018.07 1018.15 1018.19 1018.25 1018.31 1018.35 1018.37 1018.41 1018.43 1018.51 1018.53 1018.57 1018.63 1018.69 1018.69 1018.75 1018.79 1018.81 1018.87 1018.87 1018.93 1018.97 1019.03 1019.07 1019.13 1019.15 1019.21 1019.21 1019.19 1019.21 1019.21 1019.25
1014.13 1014.25 1014.35 1014.43 1014.53 1014.65 1014.75 1014.85 1014.97 1015.13 1015.29 1015.43 1015.53 1015.65 1015.75 1015.87 1015.93 1016.07 1016.21 1016.35 1016.47 1016.57 1016.65 1016.75 1016.85 1016.91 1016.99 1017.13 1017.25 1017.37 1017.47 1017.57 1017.65 1017.75 1017.87 1017.97 1017.99 1018.07 1018.09 1018.15 1018.19 1018.25 1018.31 1018.35 1018.31 1018.35 1018.35 1018.31 1018.37 1018.43 1018.53 1018.63 1018.69 1018.75 1018.81 1018.87 1018.87 1018.93 1018.97 1019.03 1019.03 1019.09 1019.15 1019.21 1019.21 1019.25 1019.25 1019.29 1019.29
1014.19 1014.31 1014.43 1014.53 1014.63 1014.71 1014.81 1014.91 1015.07 1015.21 1015.37 1015.47 1015.59 1015.71 1015.81 1015.91 1015.99 1016.09 1016.21 1016.37 1016.51 1016.57 1016.65 1016.75 1016.87 1016.93 1017.07 1017.19 1017.35 1017.47 1017.57 1017.63 1017.69 1017.75 1017.81 1017.91 1017.97 1018.07 1018.13 1018.19 1018.19 1018.25 1018.29 1018.29 1018.29 1018.25 1018.25 1018.21 1018.21 1018.29 1018.41 1018.57 1018.63 1018.69 1018.79 1018.85 1018.91 1018.97 1018.99 1019.07 1019.07 1019.13 1019.19 1019.21 1019.21 1019.29 1019.31 1019.31 1019.31
1014.21 1014.35 1014.47 1014.59 1014.71 1014.85 1014.93 1015.03 1015.19 1015.31 1015.43 1015.53 1015.63 1015.75 1015.85 1015.93 1016.03 1016.13 1016.25 1016.41 1016.51 1016.59 1016.71 1016.85 1016.97 1017.03 1017.15 1017.29 1017.41 1017.53 1017.59 1017.69 1017.75 1017.81 1017.85 1017.93 1017.99 1018.07 1018.13 1018.21 1018.21 1018.25 1018.25 1018.25 1018.25 1018.25 1018.21 1018.21 1018.21 1018.19 1018.25 1018.41 1018.53 1018.65 1018.75 1018.85 1018.91 1018.97 1019.03 1019.09 1019.13 1019.19 1019.21 1019.25 1019.25 1019.31 1019.35 1019.35 1019.35
1014.25 1014.37 1014.51 1014.63 1014.79 1014.91 1015.03 1015.15 1015.25 1015.37 1015.51 1015.59 1015.69 1015.75 1015.85 1015.97 1016.03 1016.15 1016.29 1016.41 1016.53 1016.69 1016.85 1016.99 1017.09 1017.19 1017.31 1017.43 1017.53 1017.59 1017.63 1017.71 1017.75 1017.81 1017.87 1017.97 1018.07 1018.13 1018.19 1018.25 1018.29 1018.25 1018.21 1018.21 1018.21 1018.25 1018.25 1018.25 1018.21 1018.21 1018.21 1018.25 1018.43 1018.59 1018.69 1018.79 1018.91 1018.97 1019.03 1019.13 1019.19 1019.21 1019.25 1019.31 1019.31 1019.35 1019.37 1019.37 1019.37
1014.29 1014.37 1014.51 1014.65 1014.79 1014.93 1015.07 1015.19 1015.29 1015.41 1015.53 1015.63 1015.71 1015.79 1015.87 1015.99 1016.09 1016.19 1016.31 1016.47 1016.63 1016.79 1016.91 1017.03 1017.15 1017.31 1017.43 1017.53 1017.57 1017.63 1017.65 1017.75 1017.81 1017.87 1017.93 1018.03 1018.13 1018.19 1018.21 1018.25 1018.29 1018.29 1018.25 1018.25 1018.25 1018.25 1018.25 1018.25 1018.21 1018.21 1018.19 1018.19 1018.37 1018.53 1018.63 1018.75 1018.85 1018.97 1019.07 1019.15 1019.19 1019.25 1019.29 1019.35 1019.35 1019.37 1019.41 1019.43 1019.47
1014.35 1014.43 1014.53 1014.69 1014.81 1014.97 1015.09 1015.21 1015.35 1015.43 1015.57 1015.65 1015.75 1015.81 1015.91 1016.07 1016.19 1016.29 1016.41 1016.57 1016.71 1016.85 1016.97 1017.09 1017.21 1017.37 1017.51 1017.57 1017.59 1017.63 1017.71 1017.79 1017.81 1017.87 1017.93 1018.03 1018.13 1018.19 1018.25 1018.29 1018.31 1018.31 1018.29 1018.29 1018.25 1018.25 1018.21 1018.21 1018.21 1018.21 1018.19 1018.19 1018.35 1018.51 1018.63 1018.71 1018.81 1018.93 1019.03 1019.15 1019.21 1019.29 1019.31 1019.37 1019.41 1019.41 1019.43 1019.47 1019.47
1014.37 1014.47 1014.59 1014.75 1014.87 1014.99 1015.13 1015.29 1015.37 1015.47 1015.59 1015.69 1015.75 1015.85 1015.97 1016.13 1016.29 1016.41 1016.51 1016.63 1016.75 1016.91 1017.07 1017.19 1017.31 1017.41 1017.51 1017.59 1017.63 1017.69 1017.71 1017.79 1017.81 1017.87 1017.93 1018.03 1018.09 1018.19 1018.25 1018.31 1018.35 1018.31 1018.29 1018.25 1018.25 1018.21 1018.21 1018.21 1018.21 1018.21 1018.19 1018.19 1018.31 1018.47 1018.63 1018.71 1018.81 1018.91 1019.03 1019.15 1019.25 1019.31 1019.35 1019.41 1019.43 1019.47 1019.51 1019.51 1019.51
1014.41 1014.53 1014.65 1014.81 1014.93 1015.09 1015.19 1015.31 1015.41 1015.51 1015.63 1015.71 1015.81 1015.93 1016.07 1016.21 1016.37 1016.51 1016.63 1016.71 1016.85 1016.97 1017.09 1017.21 1017.31 1017.41 1017.51 1017.57 1017.63 1017.69 1017.75 1017.81 1017.85 1017.87 1017.93 1018.07 1018.13 1018.19 1018.21 1018.29 1018.29 1018.29 1018.25 1018.21 1018.19 1018.21 1018.21 1018.21 1018.21 1018.21 1018.19 1018.13 1018.35 1018.57 1018.69 1018.75 1018.85 1018.93 1019.03 1019.19 1019.25 1019.35 1019.41 1019.43 1019.51 1019.53 1019.57 1019.57 1019.57
1014.41 1014.57 1014.69 1014.85 1014.97 1015.13 1015.29 1015.37 1015.47 1015.59 1015.69 1015.81 1015.93 1016.03 1016.15 1016.29 1016.43 1016.59 1016.71 1016.79 1016.87 1016.97 1017.07 1017.19 1017.29 1017.35 1017.43 1017.51 1017.57 1017.65 1017.75 1017.81 1017.87 1017.93 1017.99 1018.03 1018.09 1018.13 1018.19 1018.25 1018.25 1018.21 1018.19 1018.15 1018.19 1018.19 1018.21 1018.21 1018.21 1018.21 1018.19 1018.13 1018.41 1018.59 1018.69 1018.81 1018.91 1018.99 1019.09 1019.21 1019.35 1019.43 1019.51 1019.53 1019.59 1019.63 1019.65 1019.65 1019.65
1014.37 1014.53 1014.71 1014.87 1014.99 1015.15 1015.31 1015.43 1015.53 1015.63 1015.75 1015.91 1016.03 1016.13 1016.21 1016.35 1016.47 1016.57 1016.65 1016.75 1016.85 1016.99 1017.13 1017.21 1017.31 1017.41 1017.47 1017.53 1017.59 1017.65 1017.71 1017.85 1017.91 1017.97 1017.99 1018.03 1018.07 1018.09 1018.13 1018.19 1018.21 1018.21 1018.19 1018.15 1018.15 1018.19 1018.21 1018.19 1018.21 1018.19 1018.15 1018.25 1018.53 1018.69 1018.75 1018.85 1018.97 1019.09 1019.21 1019.31 1019.41 1019.51 1019.59 1019.63 1019.69 1019.71 1019.79 1019.79 1019.79
1014.29 1014.43 1014.65 1014.85 1015.03 1015.19 1015.31 1015.43 1015.57 1015.69 1015.79 1015.93 1016.03 1016.15 1016.29 1016.37 1016.47 1016.53 1016.59 1016.65 1016.81 1016.97 1017.13 1017.25 1017.35 1017.41 1017.51 1017.59 1017.65 1017.71 1017.75 1017.81 1017.91 1017.93 1017.99 1017.99 1017.99 1018.07 1018.09 1018.15 1018.19 1018.19 1018.15 1018.15 1018.15 1018.15 1018.15 1018.15 1018.15 1018.13 1018.15 1018.37 1018.59 1018.71 1018.81 1018.91 1019.03 1019.15 1019.29 1019.37 1019.47 1019.59 1019.65 1019.75 1019.79 1019.85 1019.87 1019.87 1019.87
1014.15 1014.31 1014.53 1014.79 1014.97 1015.13 1015.25 1015.37 1015.53 1015.65 1015.79 1015.87 1015.99 1016.13 1016.25 1016.35 1016.47 1016.53 1016.59 1016.69 1016.85 1016.99 1017.13 1017.21 1017.31 1017.41 1017.51 1017.57 1017.63 1017.65 1017.71 1017.79 1017.85 1017.87 1017.93 1017.93 1017.99 1018.03 1018.09 1018.15 1018.19 1018.15 1018.15 1018.15 1018.15 1018.15 1018.15 1018.13 1018.09 1018.09 1018.21 1018.51 1018.65 1018.79 1018.85 1018.97 1019.13 1019.21 1019.35 1019.43 1019.57 1019.69 1019.79 1019.81 1019.87 1019.91 1019.93 1019.93 1019.93
1014.07 1014.21 1014.41 1014.63 1014.85 1015.03 1015.19 1015.31 1015.43 1015.57 1015.69 1015.81 1015.93 1016.09 1016.21 1016.31 1016.43 1016.53 1016.59 1016.65 1016.79 1016.93 1017.07 1017.15 1017.29 1017.37 1017.47 1017.51 1017.59 1017.63 1017.69 1017.75 1017.81 1017.85 1017.91 1017.93 1017.97 1017.99 1018.07 1018.13 1018.15 1018.15 1018.15 1018.15 1018.13 1018.13 1018.13 1018.09 1018.03 1018.09 1018.29 1018.57 1018.69 1018.79 1018.91 1019.03 1019.19 1019.29 1019.41 1019.51 1019.63 1019.75 1019.85 1019.87 1019.91 1019.93 1019.97 1019.97 1019.97
1013.99 1014.13 1014.29 1014.47 1014.71 1014.91 1015.09 1015.25 1015.35 1015.43 1015.57 1015.75 1015.91 1016.07 1016.21 1016.31 1016.41 1016.51 1016.57 1016.59 1016.69 1016.81 1016.97 1017.13 1017.25 1017.35 1017.41 1017.51 1017.57 1017.65 1017.71 1017.75 1017.75 1017.81 1017.85 1017.91 1017.93 1017.93 1018.03 1018.09 1018.13 1018.13 1018.13 1018.13 1018.09 1018.09 1018.03 1017.97 1017.93 1018.13 1018.37 1018.57 1018.69 1018.81 1018.91 1019.07 1019.21 1019.35 1019.47 1019.57 1019.69 1019.79 1019.87 1019.93 1019.97 1019.97 1019.99 1019.99 1019.97
1013.93 1014.09 1014.21 1014.41 1014.59 1014.81 1014.99 1015.15 1015.29 1015.41 1015.57 1015.75 1015.91 1016.07 1016.21 1016.31 1016.37 1016.47 1016.53 1016.63 1016.71 1016.81 1016.93 1017.09 1017.21 1017.35 1017.43 1017.51 1017.57 1017.65 1017.71 1017.75 1017.79 1017.81 1017.81 1017.87 1017.87 1017.87 1017.93 1018.03 1018.09 1018.09 1018.09 1018.07 1018.07 1018.03 1017.97 1017.91 1017.97 1018.19 1018.43 1018.63 1018.71 1018.81 1018.93 1019.07 1019.21 1019.37 1019.51 1019.59 1019.71 1019.79 1019.87 1019.97 1020.03 1020.07 1020.07 1020.09 1019.99
1013.93 1014.09 1014.21 1014.37 1014.53 1014.71 1014.91 1015.09 1015.25 1015.43 1015.57 1015.71 1015.87 1016.03 1016.19 1016.31 1016.37 1016.47 1016.57 1016.65 1016.75 1016.85 1016.97 1017.09 1017.21 1017.35 1017.41 1017.47 1017.53 1017.63 1017.65 1017.71 1017.75 1017.81 1017.81 1017.81 1017.85 1017.85 1017.87 1017.97 1018.07 1018.09 1018.09 1018.09 1018.07 1017.97 1017.91 1017.91 1018.07 1018.25 1018.51 1018.69 1018.79 1018.85 1018.93 1019.09 1019.25 1019.41 1019.53 1019.63 1019.71 1019.81 1019.91 1019.99 1020.03 1020.07 1020.13 1020.15 1020.15
Thickness
5642 5642 5643 5643 5641 5639 5638 5637 5636 5636 5635 5632 5632 5630 5628 5630 5632 5634 5635 5635 5634 5633 5631 5630 5628 5626 5625 5625 5628 5631 5633 5635 5636 5635 5635 5634 5631 5629 5628 5628 5630 5630 5629 5629 5626 5624 5621 5620 5620 5621 5621 5622 5623 5624 5625 5626 5625 5624 5623 5622 5622 5621 5620 5620 5619 5619 5618 5617 5616
5644 5644 5644 5642 5640 5636 5634 5634 5633 5632 5630 5628 5627 5626 5626 5628 5630 5630 5632 5632 5631 5630 5629 5627 5624 5624 5624 5624 5626 5628 5631 5632 5633 5633 5633 5631 5630 5627 5626 5627 5628 5629 5628 5626 5624 5620 5617 5618 5617 5616 5616 5616 5618 5619 5620 5621 5622 5621 5620 5619 5619 5619 5618 5617 5617 5616 5615 5614 5613
5644 5643 5642 5640 5637 5635 5633 5631 5629 5628 5628 5628 5626 5626 5627 5628 5628 5628 5629 5628 5628 5627 5625 5624 5623 5621 5621 5622 5623 5625 5628 5630 5630 5630 5628 5628 5626 5626 5626 5625 5625 5626 5627 5627 5620 5615 5614 5614 5613 5612 5611 5611 5612 5613 5615 5616 5617 5617 5617 5616 5615 5615 5615 5614 5614 5613 5613 5612 5611
5641 5641 5639 5637 5636 5634 5632 5627 5627 5627 5627 5625 5624 5623 5625 5627 5628 5628 5627 5626 5625 5623 5620 5619 5619 5619 5619 5619 5620 5622 5624 5625 5625 5625 5623 5622 5621 5622 5622 5622 5621 5621 5621 5619 5614 5612 5614 5613 5611 5610 5608 5607 5608 5609 5611 5612 5613 5614 5613 5613 5612 5612 5611 5610 5610 5610 5609 5608 5608
5638 5638 5638 5636 5634 5632 5631 5629 5627 5626 5626 5623 5622 5623 5623 5625 5628 5629 5628 5624 5622 5620 5618 5616 5616 5616 5616 5616 5617 5619 5619 5619 5618 5617 5617 5616 5617 5617 5618 5618 5616 5616 5614 5612 5612 5612 5612 5611 5610 5607 5606 5605 5603 5605 5608 5609 5610 5610 5610 5609 5609 5608 5608 5607 5606 5605 5605 5605 5604
5635 5636 5635 5634 5631 5628 5628 5631 5631 5627 5624 5624 5624 5622 5622 5622 5625 5627 5626 5623 5620 5617 5616 5615 5613 5612 5613 5613 5614 5615 5615 5614 5612 5611 5611 5612 5613 5613 5614 5614 5613 5613 5612 5612 5611 5611 5610 5609 5607 5604 5601 5599 5600 5602 5604 5606 5607 5607 5607 5606 5605 5604 5604 5603 5602 5602 5601 5601 5600
5633 5633 5632 5630 5628 5625 5625 5626 5626 5623 5622 5622 5622 5620 5619 5618 5619 5619 5620 5619 5617 5615 5613 5611 5611 5611 5610 5611 5612 5612 5612 5611 5609 5608 5608 5609 5609 5610 5610 5611 5611 5610 5610 5609 5608 5608 5607 5606 5603 5601 5598 5598 5599 5600 5602 5603 5604 5604 5603 5603 5601 5601 5600 5600 5599 5598 5598 5597 5596
5631 5631 5629 5626 5625 5624 5623 5621 5619 5619 5619 5618 5617 5616 5616 5614 5614 5614 5614 5613 5611 5610 5610 5609 5609 5608 5609 5610 5610 5610 5610 5610 5608 5607 5606 5607 5606 5607 5607 5608 5608 5607 5605 5604 5604 5605 5604 5603 5600 5597 5596 5595 5596 5597 5598 5600 5601 5601 5600 5599 5598 5597 5597 5596 5595 5595 5594 5594 5592
5628 5628 5627 5624 5621 5620 5619 5618 5618 5616 5615 5611 5613 5613 5613 5613 5613 5613 5611 5610 5608 5607 5606 5606 5606 5606 5607 5608 5608 5608 5608 5608 5607 5607 5606 5605 5604 5604 5605 5606 5604 5602 5599 5598 5598 5599 5598 5597 5594 5593 5592 5593 5593 5595 5597 5598 5598 5598 5597 5596 5594 5593 5592 5592 5591 5590 5590 5589 5589
5626 5626 5625 5622 5618 5615 5614 5615 5615 5614 5612 5610 5612 5611 5611 5612 5612 5612 5611 5608 5606 5605 5604 5603 5603 5603 5604 5605 5605 5605 5605 5605 5605 5604 5603 5601 5600 5600 5600 5599 5598 5595 5594 5593 5593 5592 5592 5590 5589 5588 5589 5590 5591 5593 5595 5595 5595 5594 5592 5590 5590 5589 5588 5587 5586 5586 5585 5585 5585
5624 5624 5623 5620 5616 5612 5611 5612 5612 5611 5610 5610 5610 5609 5610 5610 5610 5611 5610 5607 5605 5603 5602 5601 5601 5601 5601 5601 5602 5604 5606 5603 5601 5598 5597 5597 5596 5596 5595 5595 5593 5592 5591 5589 5588 5587 5585 5584 5584 5585 5586 5587 5589 5590 5590 5590 5590 5588 5587 5586 5585 5584 5583 5582 5582 5581 5581 5581 5580
5622 5622 5621 5619 5615 5612 5610 5609 5609 5608 5608 5607 5607 5607 5607 5607 5607 5606 5606 5604 5603 5601 5598 5599 5599 5599 5598 5596 5598 5602 5602 5598 5595 5593 5591 5592 5592 5591 5591 5590 5590 5589 5588 5587 5585 5582 5580 5581 5582 5584 5584 5585 5585 5585 5585 5584 5584 5583 5582 5582 5581 5580 5579 5578 5577 5577 5576 5576 5576
5619 5619 5617 5616 5614 5611 5608 5607 5607 5607 5607 5607 5608 5607 5606 5606 5604 5602 5600 5599 5599 5596 5594 5596 5595 5595 5594 5592 5593 5593 5592 5590 5590 5588 5588 5588 5587 5587 5588 5587 5587 5587 5586 5583 5582 5581 5580 5580 5581 5581 5581 5581 5580 5580 5580 5579 5579 5579 5578 5577 5577 5576 5575 5574 5573 5572 5572 5572 5571
5614 5614 5613 5613 5611 5610 5608 5607 5606 5607 5608 5610 5607 5603 5600 5601 5600 5598 5598 5596 5593 5591 5591 5591 5592 5592 5591 5589 5589 5588 5588 5587 5586 5585 5583 5583 5583 5585 5585 5584 5583 5583 5581 5579 5578 5577 5577 5578 5578 5578 5577 5576 5576 5575 5575 5575 5575 5575 5574 5573 5572 5571 5571 5570 5569 5569 5568 5568 5567
5608 5608 5608 5608 5608 5607 5606 5605 5605 5605 5603 5601 5598 5596 5595 5595 5595 5595 5595 5593 5590 5588 5588 5589 5589 5588 5587 5586 5585 5585 5585 5585 5584 5581 5580 5579 5581 5581 5581 5579 5578 5577 5576 5574 5574 5573 5573 5574 5574 5574 5573 5573 5572 5572 5572 5572 5571 5570 5570 5569 5568 5567 5567 5566 5565 5565 5565 5564 5563
5602 5602 5602 5602 5603 5602 5602 5601 5600 5600 5598 5596 5594 5593 5592 5591 5591 5591 5591 5590 5587 5586 5585 5586 5585 5584 5583 5583 5582 5582 5583 5582 5580 5578 5577 5576 5576 5576 5575 5574 5572 5571 5570 5570 5570 5570 5570 5570 5570 5570 5569 5569 5568 5567 5567 5567 5567 5566 5565 5565 5564 5564 5563 5562 5562 5561 5561 5560 5560
5597 5597 5597 5597 5597 5597 5597 5596 5595 5594 5593 5592 5591 5589 5588 5587 5586 5586 5586 5585 5583 5582 5581 5581 5581 5580 5579 5579 5578 5578 5577 5577 5576 5575 5574 5573 5572 5571 5570 5569 5568 5568 5567 5567 5567 5566 5566 5567 5567 5566 5566 5565 5564 5563 5563 5563 5562 5562 5562 5561 5560 5560 5559 5559 5558 5558 5557 5556 5556
5593 5592 5592 5592 5592 5592 5591 5591 5590 5589 5589 5587 5586 5585 5585 5583 5582 5581 5581 5581 5580 5578 5577 5576 5576 5575 5575 5574 5574 5574 5574 5573 5573 5572 5571 5569 5568 5567 5566 5565 5565 5564 5564 5564 5564 5564 5563 5563 5563 5562 5562 5562 5561 5560 5560 5559 5558 5558 5558 5557 5556 5556 5556 5555 5554 5554 5553 5552 5552
5587 5587 5587 5587 5587 5586 5586 5586 5586 5584 5584 5583 5582 5582 5580 5580 5579 5578 5577 5576 5576 5575 5574 5572 5572 5572 5572 5571 5571 5570 5570 5570 5569 5568 5566 5565 5565 5564 5563 5562 5561 5561 5561 5561 5561 5560 5560 5559 5559 5558 5558 5557 5557 5557 5556 5556 5555 5554 5554 5553 5553 5552 5552 5551 5550 5549 5548 5548 5547
5582 5582 5582 5582 5582 5581 5581 5581 5581 5580 5579 5578 5578 5578 5577 5576 5576 5575 5574 5573 5573 5572 5572 5570 5569 5568 5568 5568 5567 5567 5567 5566 5565 5564 5563 5562 5562 5561 5560 5559 5558 5558 5558 5558 5557 5557 5556 5556 5556 5555 5554 5554 5554 5553 5552 5552 5551 5550 5550 5549 5549 5548 5547 5547 5546 5545 5544 5544 5543
5577 5577 5576 5576 5576 5576 5576 5576 5576 5575 5575 5574 5574 5573 5573 5572 5572 5571 5571 5570 5569 5569 5569 5568 5567 5566 5565 5565 5565 5563 5562 5562 5562 5561 5559 5558 5557 5557 5557 5556 5555 5555 5554 5554 5554 5553 5553 5552 5551 5551 5551 5551 5550 5549 5549 5548 5548 5546 5546 5545 5545 5544 5543 5543 5542 5541 5540 5540 5539
5572 5571 5572 5571 5571 5571 5571 5571 5570 5570 5570 5569 5569 5569 5569 5568 5567 5567 5567 5566 5566 5566 5565 5564 5563 5563 5562 5562 5561 5561 5559 5558 5557 5556 5556 5555 5554 5554 5554 5553 5553 5552 5552 5551 5550 5550 5549 5549 5548 5548 5548 5547 5546 5546 5546 5545 5544 5543 5542 5541 5541 5540 5539 5539 5538 5537 5536 5535 5535
5567 5567 5566 5566 5566 5566 5566 5566 5565 5565 5565 5565 5564 5565 5564 5564 5564 5563 5563 5563 5562 5562 5561 5560 5560 5560 5560 5560 5559 5558 5557 5555 5555 5554 5554 5553 5552 5552 5552 5551 5551 5550 5549 5548 5547 5547 5546 5546 5545 5545 5544 5544 5543 5542 5542 5541 5540 5539 5538 5537 5537 5536 5535 5534 5534 5533 5532 5531 5530
5562 5562 5562 5561 5561 5561 5561 5561 5561 5560 5560 5560 5560 5560 5560 5560 5560 5559 5559 5559 5558 5557 5557 5557 5557 5557 5557 5557 5556 5555 5554 5553 5552 5551 5551 5551 5551 5550 5549 5549 5549 5547 5547 5546 5545 5545 5544 5543 5543 5542 5541 5541 5540 5539 5538 5537 5537 5536 5535 5533 5533 5532 5531 5530 5529 5529 5528 5527 5526
5558 5557 5557 5557 5557 5557 5557 5557 5557 5556 5556 5556 5556 5556 5557 5556 5556 5556 5555 5555 5555 5555 5554 5554 5554 5554 5554 5554 5553 5552 5552 5551 5550 5549 5549 5548 5548 5547 5547 5546 5546 5545 5545 5544 5543 5543 5541 5541 5540 5539 5539 5537 5537 5536 5534 5534 5533 5532 5531 5530 5529 5528 5527 5526 5525 5525 5524 5523 5523
5554 5553 5553 5553 5553 5553 5553 5553 5553 5552 5552 5552 5552 5552 5553 5553 5553 5553 5552 5552 5552 5552 5551 5552 5551 5551 5551 5550 5550 5549 5548 5548 5547 5547 5546 5546 5546 5545 5544 5543 5543 5542 5542 5541 5541 5540 5539 5539 5538 5537 5535 5534 5533 5532 5531 5530 5529 5528 5527 5526 5525 5525 5524 5522 5521 5521 5520 5520 5519
5550 5550 5549 5549 5549 5549 5549 5549 5549 5549 5548 5549 5549 5549 5550 5550 5550 5550 5550 5549 5549 5549 5549 5549 5548 5548 5547 5547 5546 5545 5545 5545 5545 5545 5544 5543 5543 5542 5541 5540 5539 5539 5538 5538 5538 5537 5537 5536 5536 5534 5533 5531 5530 5529 5527 5526 5525 5524 5523 5523 5521 5521 5520 5519 5518 5517 5516 5516 5515
5547 5547 5546 5546 5546 5545 5545 5545 5545 5545 5545 5545 5545 5546 5546 5546 5546 5547 5547 5546 5546 5545 5545 5545 5544 5545 5544 5543 5543 5542 5542 5542 5542 5541 5541 5540 5539 5538 5537 5537 5536 5536 5535 5535 5534 5534 5533 5532 5531 5532 5531 5529 5527 5525 5524 5523 5521 5520 5520 5518 5518 5517 5516 5515 5514 5514 5513 5512 5511
5544 5544 5544 5543 5543 5542 5542 5542 5541 5541 5542 5542 5542 5543 5543 5544 5543 5544 5543 5543 5543 5542 5542 5541 5541 5540 5540 5540 5539 5539 5539 5539 5539 5538 5537 5536 5536 5534 5533 5533 5532 5532 5532 5531 5531 5530 5529 5528 5528 5528 5528 5526 5524 5522 5521 5519 5518 5517 5516 5515 5514 5513 5512 5511 5511 5510 5509 5508 5508
5542 5541 5541 5540 5540 5540 5539 5539 5539 5539 5539 5539 5540 5540 5540 5541 5540 5540 5540 5540 5539 5539 5538 5538 5537 5537 5536 5536 5536 5536 5536 5535 5535 5534 5533 5532 5531 5531 5530 5529 5529 5528 5528 5528 5527 5526 5526 5525 5525 5524 5524 5524 5522 5520 5518 5517 5515 5514 5513 5511 5511 5510 5509 5508 5507 5506 5505 5505 5504
5538 5538 5538 5538 5537 5537 5536 5537 5536 5536 5537 5537 5537 5537 5537 5537 5537 5537 5537 5536 5535 5535 5535 5534 5534 5533 5533 5532 5533 5532 5532 5532 5531 5531 5530 5529 5528 5527 5526 5525 5525 5525 5524 5524 5523 5523 5522 5522 5522 5521 5521 5520 5519 5516 5515 5513 5512 5511 5509 5508 5507 5506 5505 5504 5503 5503 5502 5501 5500
5535 5535 5535 5534 5534 5534 5534 5534 5534 5534 5534 5534 5534 5534 5534 5533 5533 5533 5533 5533 5533 5532 5531 5531 5531 5530 5529 5529 5529 5529 5528 5528 5528 5527 5526 5525 5525 5523 5522 5521 5521 5521 5521 5521 5520 5519 5519 5519 5518 5517 5517 5516 5515 5514 5512 5511 5509 5508 5506 5505 5503 5502 5501 5500 5499 5498 5498 5497 5497
5532 5532 5532 5531 5531 5531 5531 5531 5530 5531 5531 5531 5531 5531 5530 5530 5530 5529 5529 5529 5529 5529 5528 5528 5528 5527 5527 5526 5526 5525 5525 5525 5524 5523 5523 5522 5521 5519 5519 5518 5518 5518 5518 5518 5517 5517 5516 5515 5514 5514 5513 5513 5511 5509 5508 5507 5506 5504 5503 5501 5499 5498 5497 5496 5495 5494 5494 5493 5492
5529 5529 5528 5528 5527 5527 5527 5527 5527 5528 5528 5527 5527 5527 5527 5527 5526 5525 5526 5525 5525 5526 5525 5525 5524 5524 5524 5523 5522 5522 5521 5521 5520 5520 5518 5518 5517 5516 5515 5515 5515 5515 5515 5514 5513 5513 5512 5512 5511 5510 5510 5510 5507 5506 5504 5503 5502 5500 5499 5497 5495 5494 5493 5492 5491 5491 5489 5489 5488
5526 5526 5525 5525 5525 5525 5524 5524 5524 5524 5524 5524 5524 5523 5523 5523 5523 5523 5523 5522 5523 5522 5521 5521 5521 5520 5519 5519 5519 5518 5518 5517 5516 5516 5515 5515 5514 5513 5513 5512 5511 5512 5511 5511 5510 5509 5508 5508 5507 5507 5507 5505 5503 5501 5500 5499 5498 5496 5495 5493 5491 5490 5489 5488 5486 5486 5485 5484 5484
5524 5523 5523 5522 5522 5521 5521 5521 5521 5521 5521 5521 5520 5519 5520 5519 5520 5520 5520 5520 5519 5519 5518 5517 5517 5516 5516 5515 5515 5514 5514 5514 5513 5512 5512 5512 5511 5510 5509 5509 5508 5508 5508 5508 5507 5506 5505 5504 5504 5503 5503 5501 5498 5497 5497 5495 5493 5492 5490 5489 5487 5486 5484 5484 5482 5482 5481 5480 5480
5522 5522 5521 5520 5519 5519 5518 5518 5518 5517 5517 5517 5517 5517 5517 5517 5516 5517 5517 5517 5516 5516 5515 5515 5514 5513 5513 5513 5512 5512 5511 5510 5510 5510 5509 5508 5508 5507 5506 5505 5505 5505 5504 5504 5503 5503 5502 5501 5501 5500 5499 5496 5494 5493 5492 5490 5489 5487 5486 5484 5483 5481 5480 5479 5479 5478 5477 5476 5476
5520 5520 5519 5518 5517 5516 5516 5516 5515 5515 5515 5514 5514 5514 5514 5513 5513 5513 5514 5514 5514 5513 5512 5512 5511 5510 5510 5509 5509 5508 5508 5507 5507 5506 5505 5505 5505 5504 5503 5502 5501 5501 5501 5500 5499 5499 5498 5498 5498 5496 5494 5492 5490 5489 5488 5486 5485 5483 5482 5480 5479 5478 5477 5475 5475 5474 5474 5473 5473
5517 5517 5517 5517 5515 5514 5514 5513 5513 5513 5513 5512 5512 5511 5510 5511 5510 5511 5511 5512 5511 5510 5509 5508 5508 5507 5506 5506 5506 5505 5504 5503 5503 5503 5502 5502 5501 5501 5500 5498 5498 5497 5497 5497 5496 5495 5495 5495 5495 5493 5490 5488 5487 5485 5484 5482 5481 5479 5478 5477 5475 5474 5473 5471 5471 5471 5470 5470 5469
5515 5515 5514 5514 5513 5512 5511 5511 5510 5510 5510 5509 5508 5508 5508 5508 5508 5507 5508 5508 5508 5507 5506 5505 5504 5503 5502 5503 5502 5501 5500 5500 5500 5500 5499 5498 5498 5497 5497 5495 5494 5493 5493 5493 5492 5492 5492 5492 5491 5488 5486 5484 5482 5482 5480 5479 5477 5475 5474 5473 5472 5471 5470 5468 5468 5467 5466 5465 5466
5512 5511 5511 5511 5510 5509 5509 5508 5507 5506 5506 5506 5506 5505 5504 5505 5505 5505 5504 5504 5504 5503 5502 5501 5500 5500 5499 5499 5498 5498 5497 5497 5496 5496 5496 5496 5494 5494 5493 5491 5490 5490 5489 5489 5489 5489 5489 5489 5487 5484 5482 5480 5479 5478 5477 5475 5474 5472 5471 5470 5469 5468 5466 5465 5464 5463 5463 5462 5461